STARLINK-3882 (52475 NORAD) Tracking and Keplerian Element Data

This shows tracking and keplerian element data for the satellite.

Feedback or suggestion? Click here.




ElementValue
Catalog52475
NameSTARLINK-3882
Epoch Orbit130
Epoch Day167.08334491
Epoch Year2022
RAAN64.9956
Inclination53.2167
Eccentricity0.00021
Argument of Perigee32.4025
Mean Anonmoly109.0043
Mean Motion15.73188671
Decay Rate0.00089661
L11 52475U 22049AA 22167.08334491 .00089661 00000+0 63674-3 0 9998
L22 52475 53.2167 64.9956 0002100 32.4025 109.0043 15.73188671 1305

Live tracking and technical data element details for STARLINK-3882 (NORAD 52475). STARLINK-3882 can be tracked NOW for your location showing map with azimuth and elevation plus other details from your city location.

Track the satellite on the map from your city or location and see movement details for azimuth, elevation, latitude, longitude, range, height, and movement on the map or in text.







IsCatalogInMostPopularTable: catalog: 52475, numindb: 1
Update: records affected: 1



GetName: 52475 STARLINK-3882

Hit Count: updated at: Mon, 27 Jun 2022 04:59:08 GMT